HVDC transfer

From www.emi.ea.govt.nz provided by the Electricity Authority (New Zealand)
Run at: 20240529150509

Parameters
Date range,29 Apr 2024 - 29 Apr 2024
Time scale,Trading period
Show,Average flow (MW)

Period start,Period end,Trading period,Direction,Energy transfer (GWh),Peak flow (MW),Average flow (MW)
29/04/2024 00:00:00,29/04/2024 00:30:00,1,Southward at Benmore,-0.020,-41,-41
29/04/2024 00:30:00,29/04/2024 01:00:00,2,Southward at Benmore,-0.018,-37,-37
29/04/2024 01:00:00,29/04/2024 01:30:00,3,Southward at Benmore,-0.037,-74,-74
29/04/2024 01:30:00,29/04/2024 02:00:00,4,Southward at Benmore,-0.044,-88,-88
29/04/2024 02:00:00,29/04/2024 02:30:00,5,Southward at Benmore,-0.041,-82,-82
29/04/2024 02:30:00,29/04/2024 03:00:00,6,Southward at Benmore,-0.040,-80,-80
29/04/2024 03:00:00,29/04/2024 03:30:00,7,Southward at Benmore,-0.042,-84,-84
29/04/2024 03:30:00,29/04/2024 04:00:00,8,Southward at Benmore,-0.054,-109,-109
29/04/2024 04:00:00,29/04/2024 04:30:00,9,Southward at Benmore,-0.052,-104,-104
29/04/2024 04:30:00,29/04/2024 05:00:00,10,Southward at Benmore,-0.031,-62,-62
29/04/2024 05:00:00,29/04/2024 05:30:00,11,Southward at Benmore,-0.005,-10,-10
29/04/2024 05:30:00,29/04/2024 06:00:00,12,Northward at Haywards,0.059,117,117
29/04/2024 06:00:00,29/04/2024 06:30:00,13,Northward at Haywards,0.151,301,301
29/04/2024 06:30:00,29/04/2024 07:00:00,14,Northward at Haywards,0.237,474,474
29/04/2024 07:00:00,29/04/2024 07:30:00,15,Northward at Haywards,0.292,584,584
29/04/2024 07:30:00,29/04/2024 08:00:00,16,Northward at Haywards,0.339,678,678
29/04/2024 08:00:00,29/04/2024 08:30:00,17,Northward at Haywards,0.307,613,613
29/04/2024 08:30:00,29/04/2024 09:00:00,18,Northward at Haywards,0.272,544,544
29/04/2024 09:00:00,29/04/2024 09:30:00,19,Northward at Haywards,0.278,556,556
29/04/2024 09:30:00,29/04/2024 10:00:00,20,Northward at Haywards,0.274,548,548
29/04/2024 10:00:00,29/04/2024 10:30:00,21,Northward at Haywards,0.258,515,515
29/04/2024 10:30:00,29/04/2024 11:00:00,22,Northward at Haywards,0.248,496,496
29/04/2024 11:00:00,29/04/2024 11:30:00,23,Northward at Haywards,0.237,473,473
29/04/2024 11:30:00,29/04/2024 12:00:00,24,Northward at Haywards,0.256,512,512
29/04/2024 12:00:00,29/04/2024 12:30:00,25,Northward at Haywards,0.268,536,536
29/04/2024 12:30:00,29/04/2024 13:00:00,26,Northward at Haywards,0.266,531,531
29/04/2024 13:00:00,29/04/2024 13:30:00,27,Northward at Haywards,0.252,503,503
29/04/2024 13:30:00,29/04/2024 14:00:00,28,Northward at Haywards,0.255,510,510
29/04/2024 14:00:00,29/04/2024 14:30:00,29,Northward at Haywards,0.249,498,498
29/04/2024 14:30:00,29/04/2024 15:00:00,30,Northward at Haywards,0.247,494,494
29/04/2024 15:00:00,29/04/2024 15:30:00,31,Northward at Haywards,0.272,544,544
29/04/2024 15:30:00,29/04/2024 16:00:00,32,Northward at Haywards,0.267,534,534
29/04/2024 16:00:00,29/04/2024 16:30:00,33,Northward at Haywards,0.277,554,554
29/04/2024 16:30:00,29/04/2024 17:00:00,34,Northward at Haywards,0.256,511,511
29/04/2024 17:00:00,29/04/2024 17:30:00,35,Northward at Haywards,0.278,555,555
29/04/2024 17:30:00,29/04/2024 18:00:00,36,Northward at Haywards,0.328,655,655
29/04/2024 18:00:00,29/04/2024 18:30:00,37,Northward at Haywards,0.355,710,710
29/04/2024 18:30:00,29/04/2024 19:00:00,38,Northward at Haywards,0.326,652,652
29/04/2024 19:00:00,29/04/2024 19:30:00,39,Northward at Haywards,0.282,563,563
29/04/2024 19:30:00,29/04/2024 20:00:00,40,Northward at Haywards,0.256,512,512
29/04/2024 20:00:00,29/04/2024 20:30:00,41,Northward at Haywards,0.251,501,501
29/04/2024 20:30:00,29/04/2024 21:00:00,42,Northward at Haywards,0.254,508,508
29/04/2024 21:00:00,29/04/2024 21:30:00,43,Northward at Haywards,0.218,435,435
29/04/2024 21:30:00,29/04/2024 22:00:00,44,Northward at Haywards,0.200,399,399
29/04/2024 22:00:00,29/04/2024 22:30:00,45,Northward at Haywards,0.162,323,323
29/04/2024 22:30:00,29/04/2024 23:00:00,46,Northward at Haywards,0.135,269,269
29/04/2024 23:00:00,29/04/2024 23:30:00,47,Northward at Haywards,0.097,193,193
29/04/2024 23:30:00,30/04/2024 00:00:00,48,Northward at Haywards,0.014,27,27
